GFSMA_2pvu_pres_324.txt.gz
Presure
246 245 246 253 262 263 259 266 264 266 267 251 182 240 251 245 241 240 231 146 230 217 158 126 210 180 214 209 197 230 226 168 187 222 81 130 172 203 200 197 200 196 196
275 276 277 275 271 266 263 264 267 266 271 268 254 265 265 272 270 230 267 257 245 83 238 204 199 197 196 207 210 205 205 204 146 132 204 234 231 217 210 193 170 170 169
255 251 245 242 241 243 249 250 250 249 248 248 246 246 248 255 258 259 262 262 245 243 244 229 243 225 197 203 204 194 189 192 195 192 196 190 203 203 182 166 172 179 172
237 217 220 233 233 214 212 213 214 223 223 219 221 225 231 235 239 246 249 248 248 245 241 257 256 242 244 189 178 185 179 179 185 190 183 181 183 176 169 167 168 167 166
230 233 245 274 269 284 267 267 279 280 279 279 274 275 275 253 245 227 222 224 226 232 229 239 242 244 252 252 213 188 187 185 187 183 173 157 166 173 169 171 164 177 192
290 280 268 267 264 264 265 266 264 264 265 267 266 265 265 265 266 265 265 268 276 280 236 222 226 231 242 246 249 243 218 174 187 181 168 177 165 169 166 185 186 194 191
260 256 257 258 259 262 264 263 260 259 262 261 259 256 253 253 254 256 258 253 260 262 264 247 236 218 225 236 244 241 240 229 165 169 162 166 174 169 186 188 171 177 164
253 257 258 256 252 249 243 244 243 244 248 252 254 255 257 257 254 251 253 255 253 253 253 254 256 264 237 216 222 235 234 229 231 233 218 230 234 215 223 199 189 174 175
238 241 242 244 250 267 280 289 291 295 294 299 281 246 238 248 248 249 247 253 251 248 249 250 242 246 252 255 227 206 218 221 219 211 217 207 207 186 205 203 199 179 174
282 272 269 262 260 265 354 373 374 363 346 288 298 358 302 285 256 236 236 238 240 240 249 246 243 244 240 247 238 192 192 201 250 254 215 225 201 194 190 170 183 182 177
353 384 366 355 355 357 359 356 354 360 352 358 369 398 414 296 305 314 282 243 233 232 236 236 245 243 244 238 242 237 230 248 243 233 185 209 185 146 203 184 178 175 200
337 362 379 354 334 361 369 356 405 407 388 369 357 369 386 409 410 394 325 304 293 246 233 224 236 238 245 244 238 234 236 236 233 235 223 231 219 220 174 220 222 202 197
360 300 296 295 313 329 348 391 377 357 361 390 412 365 363 376 388 397 424 372 302 286 279 251 227 230 230 237 238 233 232 230 219 233 225 214 214 206 221 200 207 197 197
289 283 281 314 319 322 323 356 409 405 400 391 393 422 374 365 373 376 393 431 430 311 293 272 267 231 225 218 218 230 232 227 216 219 207 217 207 219 128 218 205 202 195
302 316 302 293 296 309 311 340 396 428 460 446 437 553 414 364 373 373 379 405 429 407 311 290 268 254 225 211 213 215 232 224 216 216 219 206 212 216 215 201 200 192 183
287 286 279 276 287 296 306 319 346 411 446 466 461 485 484 397 362 353 377 385 433 424 383 318 288 272 243 224 210 214 215 221 219 220 213 210 205 205 203 194 196 180 193
269 270 269 267 279 290 298 306 350 434 480 484 501 519 475 495 386 349 360 376 405 403 448 354 313 278 273 235 218 219 209 221 219 209 210 207 183 197 206 241 184 206 178
265 266 267 272 271 290 292 305 346 483 507 482 510 525 463 561 425 351 346 368 394 385 450 378 378 287 270 266 260 224 201 224 206 205 199 205 202 206 236 195 201 189 187
275 255 276 278 279 277 296 320 349 491 473 487 525 535 426 435 376 365 358 365 381 386 443 388 387 309 270 265 256 230 204 207 207 207 207 205 212 233 214 194 209 192 181
268 264 264 267 265 282 294 324 429 510 477 453 496 545 407 388 376 370 394 368 384 394 436 385 395 320 273 259 255 247 225 207 202 201 208 204 213 221 202 198 198 179 182
266 262 258 262 267 234 301 339 434 491 466 445 477 545 492 391 369 392 374 366 393 388 434 377 400 324 270 253 244 279 234 206 200 199 210 211 211 219 200 190 192 172 182
263 260 254 271 274 288 298 380 451 524 466 437 425 466 512 427 386 378 376 389 381 383 435 373 404 310 263 241 233 256 230 217 211 208 210 208 208 226 199 183 190 160 161
255 272 266 271 265 286 314 358 488 492 460 451 408 398 402 394 378 382 372 385 385 393 428 369 406 299 192 229 233 199 292 216 218 207 214 208 211 210 178 182 167 178 164
253 251 269 261 281 278 292 311 366 516 495 453 421 394 389 385 384 394 392 412 403 414 432 380 335 263 211 161 239 243 281 212 206 218 204 210 203 194 181 171 160 160 160
247 268 265 272 287 303 294 303 321 402 485 468 438 456 404 396 392 405 397 412 433 260 375 395 298 254 235 128 248 288 224 208 215 201 220 212 191 172 165 159 150 154 153
246 274 266 259 263 274 293 300 318 375 400 483 498 447 444 419 420 421 421 423 432 379 394 306 263 201 229 230 277 226 201 199 228 213 195 167 171 173 172 179 180 180 135

GFSMA_2pvu_pres_327.txt.gz
Presure
266 260 255 257 255 247 246 247 251 250 249 247 240 227 224 229 220 233 225 216 225 159 206 207 207 213 187 169 141 180 143 170 170 168 99 160 159 128 123 118 161 161 158
268 270 271 274 276 278 280 280 282 284 282 279 274 278 281 271 250 243 243 237 237 221 220 136 211 207 211 96 216 177 198 179 103 156 162 161 88 114 140 165 167 180 197
218 220 227 230 237 241 241 244 249 254 258 261 262 233 265 271 276 279 277 251 245 237 244 241 221 185 195 189 204 203 212 212 199 182 174 174 184 228 89 100 215 217 219
252 257 239 239 238 238 220 217 221 228 233 237 240 245 250 255 266 270 271 273 271 267 216 243 245 238 89 212 224 201 199 205 205 206 206 123 210 215 203 131 201 203 223
255 228 232 230 236 232 231 234 238 238 242 248 258 225 232 235 244 250 256 257 257 256 260 273 262 244 239 223 223 232 210 193 195 200 195 200 206 203 193 193 195 185 199
271 274 283 286 288 289 288 288 289 287 287 268 256 265 296 295 276 229 234 240 241 243 248 256 260 256 253 249 240 236 228 223 191 182 185 198 193 184 182 186 188 177 178
255 255 256 261 266 268 271 276 273 272 270 274 274 276 277 281 287 286 289 207 215 222 235 243 250 252 249 245 239 247 236 227 241 196 183 191 166 179 165 176 181 169 161
245 249 250 251 252 252 253 253 255 257 256 259 261 264 267 271 268 274 280 278 282 286 230 210 222 234 236 241 244 236 229 254 242 237 213 171 175 177 181 173 179 162 162
265 275 261 263 272 278 278 278 285 273 272 243 240 244 247 255 260 265 264 267 271 275 272 274 271 217 217 219 226 228 232 240 243 246 238 205 169 172 175 182 172 169 165
391 391 377 374 368 370 362 356 382 383 377 356 284 281 247 240 236 243 254 260 257 259 260 258 263 267 274 270 274 214 217 222 230 240 235 224 223 211 162 158 160 161 166
370 309 316 322 325 319 325 336 350 349 368 385 384 381 376 394 282 243 233 244 253 253 252 250 249 248 254 266 268 242 215 210 224 238 233 229 226 212 215 182 175 240 238
305 307 292 291 286 312 306 300 296 321 351 363 382 373 402 367 391 406 280 238 238 248 252 250 243 245 245 252 260 264 241 204 209 220 228 221 218 221 215 246 221 205 224
280 290 295 289 285 300 285 292 304 304 328 352 364 412 377 407 364 384 384 288 242 237 241 245 245 243 244 241 244 253 257 248 196 200 216 228 216 226 225 209 228 186 180
279 277 279 281 292 296 273 296 302 309 333 350 372 398 395 365 398 360 382 407 290 242 233 236 235 243 240 237 241 237 247 248 246 218 192 199 204 229 205 238 187 184 181
251 266 253 256 264 266 295 292 297 312 353 355 363 397 381 395 369 408 360 394 276 289 242 227 225 227 240 238 235 239 238 233 237 240 235 236 220 183 190 231 199 216 216
262 275 280 280 278 293 272 300 310 341 346 352 370 412 410 461 459 405 381 377 430 375 287 245 226 219 226 234 236 236 233 233 229 234 230 226 227 218 231 207 208 224 208
264 268 269 280 262 278 303 345 349 351 364 376 443 458 465 475 461 406 382 375 415 415 302 281 241 223 219 220 233 238 229 228 223 227 224 217 215 218 210 219 212 211 204
265 277 272 277 269 289 303 365 391 372 383 457 482 484 488 515 460 416 380 368 391 418 320 298 279 232 220 211 219 237 230 220 221 223 222 215 209 206 207 205 206 206 200
277 269 286 280 287 296 341 389 409 402 487 473 474 481 504 476 514 410 375 376 379 405 389 295 284 253 229 212 213 230 226 221 220 214 218 208 206 211 116 213 209 211 201
261 268 290 295 287 318 362 417 411 424 445 462 479 524 538 471 429 383 364 387 378 409 419 300 281 280 245 221 214 206 225 220 216 212 215 206 210 212 212 208 201 207 187
291 267 289 302 317 360 414 476 470 447 446 471 524 540 501 492 398 366 364 374 382 424 431 311 283 276 255 222 202 204 207 218 216 209 213 216 210 210 210 201 190 185 188
280 285 276 305 339 384 503 459 448 421 438 503 451 478 500 451 391 365 367 368 400 410 445 312 292 273 249 221 206 201 206 217 214 214 214 217 211 203 197 195 207 190 199
248 273 305 316 378 482 483 483 411 417 471 464 429 420 427 410 374 349 360 382 317 402 401 376 290 269 261 222 210 201 129 204 213 202 214 206 203 197 202 194 198 196 184
235 247 290 311 409 499 468 421 398 426 540 405 402 392 376 370 362 356 369 394 386 439 377 346 286 256 260 227 213 201 163 201 215 201 212 200 201 217 215 205 198 184 183
225 237 268 307 418 490 469 422 394 405 448 398 378 377 395 383 382 372 373 393 426 413 373 382 281 263 256 239 213 214 207 220 217 212 213 210 202 222 203 200 190 171 165
220 226 225 287 396 502 479 453 402 391 390 380 375 373 372 365 366 378 395 396 428 372 378 305 273 257 177 238 96 216 200 202 201 202 213 195 215 193 187 181 175 156 168

GFSMA_2pvu_pres_333.txt.gz
Presure
275 238 220 225 232 260 281 292 286 277 269 267 263 261 259 253 245 243 243 208 216 220 205 165 163 169 145 133 143 145 142 109 139 136 121 132 136 124 122 101 126 105 141
239 240 244 258 251 208 225 240 247 258 272 288 289 280 264 253 254 256 247 246 220 215 213 218 223 216 202 161 164 169 102 112 137 112 139 135 130 127 110 121 110 89 139
239 261 279 332 324 337 273 334 216 227 238 247 260 279 291 285 278 253 249 240 240 210 216 218 218 208 217 216 183 186 169 155 155 158 163 164 143 143 143 146 129 164 164
306 305 307 301 301 292 290 261 297 298 319 237 223 236 253 277 284 281 272 258 250 243 237 210 211 213 207 215 217 198 219 189 208 189 184 111 156 155 152 159 170 170 160
283 283 284 285 287 286 284 280 282 289 299 285 276 300 295 237 259 274 279 275 257 259 241 241 230 208 209 212 213 212 211 215 216 196 211 202 185 174 171 171 168 161 164
251 252 253 255 257 259 260 266 271 272 277 284 296 289 298 364 220 243 267 275 273 271 263 251 241 238 237 229 221 214 204 207 186 211 206 196 198 170 171 186 177 175 163
244 245 247 250 252 253 253 255 256 258 260 263 267 285 258 225 254 259 230 255 263 269 272 277 276 270 243 241 235 227 215 213 194 204 205 98 206 163 205 201 200 198 196
294 297 313 295 280 276 265 261 254 246 248 252 254 262 270 295 309 241 253 235 230 246 255 260 266 276 269 269 250 234 228 210 218 212 202 203 200 194 97 196 194 111 190
367 363 361 362 368 371 378 386 395 407 407 329 253 249 257 266 278 304 289 232 247 236 224 237 251 258 264 270 272 261 244 230 213 224 216 197 202 201 203 194 173 184 181
320 331 320 314 311 300 309 312 313 327 340 355 371 383 251 256 257 266 292 307 239 227 235 244 224 238 245 252 256 262 269 264 247 240 234 219 202 201 203 202 203 187 176
287 288 293 283 302 297 294 295 295 305 296 306 322 339 311 284 252 256 262 275 303 304 313 230 236 216 231 237 246 254 257 261 261 242 228 220 226 211 208 208 194 207 211
263 261 258 256 273 277 275 271 268 286 289 281 288 296 298 300 284 269 251 260 269 296 298 292 297 274 263 228 245 251 255 257 256 250 240 220 222 216 213 207 208 215 198
261 268 271 267 273 271 273 268 276 280 279 268 297 282 292 309 302 330 331 249 256 263 277 298 289 295 294 209 226 248 249 250 245 247 253 238 219 213 205 204 217 213 206
268 275 277 276 273 274 286 272 271 278 288 283 274 266 285 281 284 303 315 377 255 250 262 273 292 281 289 287 206 230 238 235 238 247 233 226 223 207 213 215 243 208 209
253 253 257 268 272 275 282 280 289 278 279 279 289 260 278 283 269 299 298 339 390 250 250 261 280 283 272 276 241 207 221 230 237 236 231 222 215 207 200 215 202 218 216
252 259 264 263 263 273 272 279 284 289 283 288 276 286 294 290 288 292 318 300 359 272 243 255 264 284 267 279 276 232 197 212 234 228 219 213 215 236 227 217 220 220 226
259 274 281 288 292 291 296 309 301 303 299 295 299 282 302 296 302 299 320 335 351 377 251 242 254 277 265 272 265 275 236 207 230 222 216 207 207 212 216 216 228 220 214
268 262 335 338 342 343 347 353 324 326 324 325 328 319 327 318 313 283 320 355 354 421 255 234 250 270 264 265 258 269 288 209 197 195 202 208 208 203 206 215 223 213 220
328 358 374 389 419 522 469 512 511 541 444 434 413 389 357 349 354 355 367 348 360 402 268 235 248 264 263 255 255 270 281 228 205 197 193 194 194 193 206 207 223 237 209
374 404 492 444 425 414 411 414 426 461 446 436 438 440 442 445 415 399 359 354 366 467 324 237 243 264 262 251 250 262 263 270 232 217 204 196 193 197 195 232 233 206 235
462 449 427 443 466 493 456 424 413 414 434 412 400 393 381 375 369 367 362 356 405 436 271 238 234 270 253 248 248 251 267 254 223 201 216 205 204 202 198 238 224 214 195
454 423 411 399 394 414 439 486 453 435 427 429 408 382 391 382 371 364 368 378 434 400 264 238 232 260 247 242 240 245 249 259 229 212 213 210 208 214 193 195 190 208 213
437 410 390 387 387 418 440 476 453 498 467 451 441 448 397 385 404 411 410 433 402 355 259 235 230 240 244 240 240 239 213 244 233 197 214 216 210 200 182 184 175 185 175
441 410 385 383 398 451 487 488 496 548 526 512 484 466 464 452 424 415 402 400 384 280 254 241 243 241 241 241 239 233 237 244 228 219 213 205 217 211 187 213 194 212 194
437 404 389 370 370 371 407 448 477 481 473 470 496 501 481 453 433 453 406 377 397 273 251 236 252 249 240 240 235 231 232 219 219 219 214 223 216 211 210 188 214 195 188
437 410 390 369 376 354 365 374 377 394 420 478 495 520 520 484 439 407 375 385 284 264 244 234 249 246 236 237 229 229 216 224 221 224 225 210 224 204 192 205 190 193 187

GFSMA_2pvu_pres_339.txt.gz
Presure
218 230 251 243 245 242 249 253 252 231 240 245 255 286 295 294 285 274 225 210 207 216 208 202 179 152 132 132 124 123 127 117 124 142 139 135 136 140 128 130 107 101 123
243 259 263 265 239 236 243 259 255 248 257 234 232 236 241 266 294 292 291 274 227 211 206 213 210 203 155 174 149 157 136 126 125 121 112 116 116 106 116 111 115 121 112
271 306 308 254 251 250 247 317 256 238 247 250 250 251 261 244 233 246 287 279 285 269 237 219 211 207 203 203 162 161 122 126 125 124 133 105 112 109 129 119 120 129 120
295 293 290 270 253 252 287 292 293 269 256 239 238 234 254 252 264 246 235 288 278 277 269 260 249 250 235 224 207 204 167 164 171 136 134 115 155 158 162 159 106 144 134
284 283 284 282 278 277 280 279 282 290 295 276 316 250 283 247 246 252 265 223 273 279 266 264 266 252 244 245 238 232 214 205 173 162 160 161 155 146 130 142 146 148 149
266 263 258 256 255 256 255 258 261 267 271 278 290 305 275 309 247 248 239 257 218 229 283 260 262 259 255 246 244 235 233 214 208 207 196 169 168 152 151 151 146 143 144
244 244 241 242 244 250 249 251 251 251 254 259 262 267 287 305 306 288 233 240 242 250 223 290 264 260 256 251 245 244 236 230 213 201 209 207 164 165 175 161 159 159 160
370 341 319 317 313 325 337 366 382 390 290 251 251 257 263 266 293 306 305 310 314 255 262 226 289 267 256 255 250 243 240 243 228 210 204 200 207 199 194 171 163 162 170
293 286 290 289 289 291 298 296 305 323 336 369 399 323 249 257 266 281 301 295 298 312 298 258 228 284 274 259 252 248 243 236 234 229 207 201 198 200 208 207 199 195 197
278 262 270 270 269 274 276 278 287 289 297 318 330 346 400 252 254 260 269 281 281 277 240 314 263 224 274 280 263 248 248 238 230 228 228 207 197 195 193 194 203 206 196
248 247 250 252 253 252 260 269 266 269 279 280 296 315 329 362 264 251 259 264 272 277 281 294 264 269 221 273 275 261 245 245 236 231 232 230 208 196 192 203 193 200 199
227 232 231 234 240 242 248 256 261 262 263 266 281 282 294 321 340 399 250 258 266 265 271 280 306 357 255 219 275 268 256 242 241 236 232 228 220 205 194 189 195 186 181
229 227 230 244 248 252 253 256 257 261 260 250 267 273 276 289 303 330 375 250 252 259 262 267 290 379 359 215 255 268 263 258 247 234 223 227 226 213 202 194 185 182 184
236 246 247 238 229 255 253 246 258 270 263 263 261 250 268 280 281 306 326 372 249 251 256 262 280 347 245 246 220 266 261 258 253 243 234 225 221 211 214 206 189 179 186
273 263 261 244 242 256 256 253 262 283 258 274 265 268 264 271 279 283 304 321 370 241 251 259 268 322 369 245 216 257 260 257 255 247 245 235 220 213 209 208 204 203 98
254 258 260 265 268 273 275 277 258 272 264 252 287 270 262 263 273 278 286 305 321 368 241 253 264 307 216 252 223 248 256 259 260 258 256 253 229 218 205 204 204 220 214
265 270 275 278 280 284 283 284 283 279 278 255 269 309 268 266 274 275 280 298 297 344 259 247 254 300 273 228 227 216 244 249 245 253 251 254 248 230 217 202 201 200 194
288 302 328 409 452 447 449 448 350 309 307 293 305 264 277 275 269 274 281 292 296 315 281 244 252 289 328 217 231 218 210 233 241 244 245 243 241 236 212 206 203 201 204
463 442 435 419 408 405 406 413 420 433 439 349 341 323 293 277 271 274 282 276 293 304 304 238 253 284 304 230 226 229 208 214 229 232 235 239 228 218 212 205 203 207 212
421 398 380 371 368 373 392 398 398 399 412 460 363 321 292 300 275 274 273 281 283 301 324 238 249 269 299 237 218 224 231 195 217 226 237 234 221 204 209 204 200 207 215
380 359 348 363 366 381 447 467 421 403 405 444 454 341 307 296 289 275 271 281 285 291 313 243 244 263 295 294 217 207 219 196 222 235 231 222 215 204 197 203 202 191 204
359 353 354 369 363 399 486 446 425 416 423 441 420 366 327 305 302 275 273 278 290 289 308 253 241 272 283 296 222 208 217 203 236 239 230 220 209 212 203 204 203 205 212
368 363 368 355 387 453 475 434 424 420 437 424 424 440 403 319 302 279 287 276 283 291 309 252 237 272 280 284 282 241 220 228 235 225 216 215 206 203 204 203 206 206 200
370 370 352 375 405 467 505 453 449 445 419 416 441 458 412 360 306 291 275 281 284 294 313 246 238 278 280 273 286 269 204 230 220 220 213 202 204 202 201 202 195 209 192
370 352 356 382 484 462 525 453 446 422 413 407 422 526 410 367 313 295 285 290 292 295 207 238 236 280 275 271 276 212 214 212 214 212 208 199 200 209 210 210 212 190 185
361 353 368 398 490 469 503 460 404 383 386 403 429 488 384 350 310 306 289 293 299 311 260 234 258 270 261 261 268 207 205 194 211 207 197 196 204 201 207 214 223 198 196

GFSMA_2pvu_pres_345.txt.gz
Presure
219 217 219 226 231 240 238 247 245 244 241 240 234 242 279 295 276 229 213 204 217 220 217 218 179 186 191 172 133 115 117 129 125 121 124 147 121 117 122 128 123 125 119
238 241 238 238 235 230 232 238 242 239 237 247 247 236 225 238 272 283 294 253 216 212 208 207 213 213 202 189 181 126 129 133 157 149 127 114 123 125 128 127 140 126 125
279 271 276 285 283 284 287 286 232 240 241 239 241 244 247 249 240 233 235 265 291 305 206 206 217 215 209 207 221 216 160 126 180 126 118 128 128 121 133 115 110 110 98
269 269 265 312 305 315 298 286 289 284 244 241 239 242 241 241 244 250 252 251 237 258 287 315 311 221 203 206 215 211 217 217 205 167 161 154 126 119 119 121 126 127 129
292 285 282 285 293 295 298 297 298 304 306 312 273 257 237 233 214 216 220 242 250 249 245 267 282 305 292 278 222 205 204 207 213 207 212 205 146 155 157 118 122 124 121
262 258 256 258 266 271 275 278 282 290 295 302 308 309 304 238 227 283 252 275 253 242 244 245 227 269 301 290 281 266 210 200 198 215 208 203 198 202 148 142 160 157 139
329 336 344 324 337 351 352 331 263 265 268 277 279 289 296 296 304 312 294 282 247 261 273 256 243 228 241 295 285 279 266 234 213 203 192 207 204 199 193 192 195 198 192
318 329 332 311 295 293 301 306 314 329 266 260 264 269 273 282 289 298 303 304 265 249 240 231 250 265 242 232 281 281 276 265 241 228 214 196 193 196 194 203 193 190 183
264 262 265 275 277 279 277 283 289 289 289 302 309 293 305 263 270 277 283 285 276 253 256 271 238 264 258 250 230 240 279 278 271 236 237 213 202 195 194 192 190 194 194
233 239 237 233 235 246 256 260 288 287 286 287 291 294 310 325 347 258 271 272 279 290 296 253 264 252 242 252 258 233 222 217 279 269 261 236 215 205 198 196 193 192 192
228 231 232 233 242 237 247 257 230 254 253 271 277 277 280 285 315 339 412 263 268 273 279 298 261 264 247 247 241 267 245 244 217 267 259 256 242 170 211 203 197 197 191
242 241 245 230 219 219 219 223 230 238 243 246 263 264 271 272 281 305 334 405 256 265 264 269 290 308 263 243 216 236 252 253 218 258 259 254 246 247 228 219 214 215 211
239 239 239 239 239 237 243 245 239 228 241 233 247 256 272 271 268 277 302 331 410 249 257 260 264 301 328 321 263 257 258 243 244 208 260 249 245 244 242 238 231 228 222
234 231 230 233 238 236 232 231 239 238 266 268 244 251 252 268 273 270 275 303 340 431 247 253 260 271 309 327 275 237 239 260 240 216 248 243 245 233 231 231 233 235 225
229 228 229 234 242 241 242 242 245 235 237 245 248 260 234 249 274 265 273 283 310 356 438 248 255 261 286 314 334 257 243 224 245 224 255 242 242 230 230 230 224 224 220
260 273 276 281 281 279 275 271 259 244 246 248 244 242 262 267 253 274 256 276 291 321 412 423 245 257 274 304 321 314 242 227 245 219 249 243 238 229 222 223 217 222 224
266 342 387 394 400 410 434 295 286 278 266 259 254 247 240 253 269 258 279 274 287 302 349 438 243 245 276 293 304 316 263 253 257 223 263 249 236 232 223 219 220 212 202
387 391 391 391 397 407 408 436 468 295 286 271 261 260 252 241 247 257 266 274 278 290 329 426 255 240 275 283 286 299 308 266 246 215 253 254 239 234 225 219 215 206 201
398 398 391 385 386 381 387 409 419 435 455 327 283 268 262 258 253 250 258 273 272 291 320 395 273 241 269 269 271 280 304 308 254 212 209 260 248 234 225 221 216 203 206
388 382 390 384 376 370 372 371 376 387 404 460 340 301 282 274 274 255 258 264 286 284 306 339 395 241 251 264 268 269 264 242 269 215 206 259 251 239 225 216 190 191 207
361 359 356 362 367 370 365 353 354 364 377 395 445 328 302 278 272 262 256 270 276 279 303 333 419 239 246 259 263 271 297 217 256 216 217 256 250 235 227 214 205 204 203
370 371 371 366 361 357 356 364 369 375 365 380 399 366 315 289 281 263 256 264 256 289 304 334 443 239 251 258 262 284 358 326 247 207 253 254 246 237 222 209 201 202 198
471 473 468 453 410 388 377 364 358 359 366 377 385 404 319 310 284 264 259 257 264 296 313 361 411 236 249 254 273 343 315 270 212 230 250 243 238 232 219 207 205 204 200
510 504 500 494 486 477 465 450 396 390 387 383 381 393 374 301 295 269 253 254 282 299 313 392 242 235 242 252 309 323 285 219 233 252 245 237 233 224 217 216 211 204 204
384 391 419 464 528 471 469 447 444 452 473 451 408 408 453 317 286 285 252 271 291 294 339 437 237 233 249 290 363 298 217 252 248 242 243 234 228 217 214 215 216 216 214
382 383 385 389 421 450 436 426 419 423 439 447 422 416 401 311 290 267 254 265 281 311 374 271 237 239 279 353 233 211 249 246 241 237 235 236 226 227 218 215 219 214 210

GFSMA_2pvu_pres_351.txt.gz
Presure
229 228 223 227 228 232 236 233 225 216 251 251 227 229 236 255 267 260 245 223 212 214 213 204 186 177 193 183 156 136 130 117 122 131 143 132 126 129 130 129 129 130 127
231 232 233 231 230 234 229 232 235 235 230 235 246 249 237 233 235 241 259 303 243 227 214 210 218 217 215 177 177 180 195 184 142 141 135 136 147 142 124 124 128 126 123
273 270 268 266 257 255 246 244 230 230 239 239 239 237 242 250 249 231 239 249 287 281 225 229 220 207 206 220 223 191 180 168 190 157 139 172 123 150 155 148 126 127 130
301 301 286 268 257 255 265 275 281 297 298 254 248 238 239 231 234 246 249 252 240 262 289 254 228 223 225 217 216 219 215 205 182 169 158 158 164 173 150 133 140 140 143
293 270 269 291 290 296 295 295 297 276 278 275 282 287 291 260 236 238 230 242 256 238 237 261 278 266 249 237 224 212 205 206 212 206 201 210 197 152 159 163 135 153 111
272 270 272 272 276 279 280 283 289 294 294 299 305 297 307 279 291 282 231 235 233 251 248 239 231 234 246 288 298 252 227 213 205 201 207 200 200 227 206 182 166 162 155
325 324 324 319 315 317 321 280 255 254 259 264 267 279 289 305 317 317 338 294 238 230 237 252 253 251 247 228 244 293 292 241 235 223 201 214 201 204 219 214 216 205 186
259 258 263 265 272 309 314 303 281 323 337 348 352 341 354 299 281 294 309 292 307 291 232 228 234 249 247 241 246 237 283 283 268 237 223 210 205 196 190 206 206 207 205
237 249 251 246 258 250 253 257 264 265 274 289 298 301 313 319 384 382 284 301 317 306 282 266 233 231 243 242 240 238 228 227 283 267 246 217 209 200 196 205 199 194 199
244 244 245 244 233 237 241 240 244 250 256 263 268 270 287 300 315 393 394 277 292 306 312 310 321 250 233 242 239 241 230 209 210 271 287 263 220 210 205 194 191 196 194
235 236 232 234 238 242 242 246 246 239 249 252 255 250 264 286 291 309 371 418 269 279 294 305 316 321 241 228 233 239 240 242 242 231 223 282 274 268 247 214 201 200 203
238 237 241 249 250 237 232 238 241 238 240 249 240 250 251 256 274 288 305 327 287 261 273 286 296 309 310 272 223 227 231 228 223 227 234 236 217 272 261 252 242 239 238
237 240 251 257 255 255 260 241 234 232 240 242 244 235 238 240 254 266 281 287 308 321 278 266 276 295 307 306 313 229 209 204 200 210 219 233 222 227 270 255 240 235 263
238 242 252 256 258 256 260 265 265 238 239 231 242 247 233 240 239 247 261 266 280 289 317 352 263 278 293 298 304 316 227 213 214 214 229 235 226 219 218 257 207 207 163
338 324 303 295 290 278 269 254 237 272 250 236 232 236 244 236 237 239 243 260 262 268 284 319 355 260 277 293 295 293 349 216 264 245 245 225 230 221 204 209 248 220 216
423 429 401 392 384 344 307 291 272 255 239 265 241 241 236 238 235 241 239 244 251 261 272 285 332 408 257 290 288 284 300 383 262 250 240 240 232 234 225 206 254 229 223
394 380 415 405 383 379 378 380 362 285 263 248 267 238 237 237 238 231 245 244 248 250 262 279 317 368 252 262 280 280 290 371 263 248 227 229 219 239 228 213 203 212 235
401 396 377 390 400 379 370 374 377 393 286 277 251 251 241 238 237 241 230 242 273 244 261 271 284 335 415 249 271 277 281 244 252 253 225 213 224 236 230 210 208 246 253
359 396 385 379 388 403 366 364 372 379 392 397 287 260 249 242 233 238 240 232 258 241 251 265 278 323 437 244 255 265 277 317 260 239 246 216 224 230 226 216 216 240 241
367 390 393 386 401 497 377 355 365 391 404 402 397 296 266 246 241 234 237 242 247 258 268 272 278 298 387 257 246 260 270 302 353 230 247 225 221 224 228 241 238 228 235
374 371 413 389 402 493 392 358 358 385 398 399 401 398 301 266 247 243 241 240 243 251 268 264 285 294 381 397 242 253 259 294 341 264 244 228 221 214 207 218 233 221 222
379 383 405 397 413 510 394 364 356 377 395 391 392 396 410 276 259 251 245 240 242 257 262 269 292 296 381 429 238 247 254 296 332 301 241 228 221 212 217 210 236 226 217
394 388 412 399 517 522 398 367 359 368 390 391 395 406 448 281 270 260 249 243 242 255 258 256 296 297 393 420 232 240 250 291 328 277 244 227 220 218 208 224 230 218 209
409 409 413 407 484 514 408 370 356 367 377 380 382 409 447 311 281 263 250 246 247 247 251 258 286 301 424 355 235 236 246 296 319 326 243 228 223 231 209 213 223 209 206
447 422 401 458 466 495 423 373 356 375 369 376 419 420 442 341 274 260 249 250 255 262 259 264 287 320 419 330 238 236 249 304 312 303 245 235 218 212 206 217 226 214 212
421 415 427 453 461 467 426 370 357 365 359 373 393 429 449 298 276 261 252 254 252 261 251 280 294 338 403 264 233 234 246 293 312 288 227 233 215 202 214 239 229 217 214